EW6618 Weather Reports


Display with metric or nautical units.
time (UTC)temp
F
wind
direction
speed
MPH
gust
MPH
rain 1hr
in
rain 24hr
in
rain mn
in
humidity
%
barometer
mb
20260904163200 74 236 1.0 4.0 0.00 0.00 0.00 75 1014.0
20260904162155 74 236 1.0 4.0 0.00 0.00 0.00 75 1013.9
20260904161140 74 118 1.0 3.0 0.00 0.00 0.00 77 1013.9
20260904160129 73 108 0.0 2.0 0.00 0.00 0.00 78 1013.8
20260904155135 72 84 1.0 3.0 0.00 0.00 0.00 79 1013.7
20260904153029 71 103 1.0 4.0 0.00 0.00 0.00 82 1013.7
20260904152022 70 81 1.0 4.0 0.00 0.00 0.00 83 1013.7
20260904150957 69 84 2.0 4.0 0.00 0.00 0.00 84 1013.7
20260904150018 69 115 1.0 3.0 0.00 0.00 0.00 84 1013.6
20260904143827 67 68 1.0 3.0 0.00 0.00 0.00 87 1013.2
20260904142820 67 94 1.0 3.0 0.00 0.00 0.00 88 1013.2
20260904141801 66 86 1.0 2.0 0.00 0.00 0.00 88 1013.1
20260904140730 66 79 1.0 2.0 0.00 0.00 0.00 88 1013.2
20260904134635 65 70 1.0 3.0 0.00 0.00 0.00 88 1013.0
20260904133647 65 74 1.0 3.0 0.00 0.00 0.00 88 1012.8
20260904132635 65 79 1.0 3.0 0.00 0.00 0.00 88 1012.9
20260904131634 65 78 1.0 3.0 0.00 0.00 0.00 88 1012.9
20260904130630 65 51 0.0 3.0 0.00 0.00 0.00 88 1012.8
20260904125602 65 82 0.0 1.0 0.00 0.00 0.00 88 1012.7
20260904124541 65 60 0.0 1.0 0.00 0.00 0.00 88 1012.6
20260904123540 66 82 0.0 1.0 0.00 0.00 0.00 88 1012.7
20260904122524 66 76 0.0 1.0 0.00 0.00 0.00 87 1012.5
20260904121539 66 78 0.0 1.0 0.00 0.00 0.00 87 1012.5
20260904115356 66 88 0.0 0.0 0.00 0.00 0.00 87 1012.4
20260904114355 66 99 0.0 0.0 0.00 0.00 0.00 87 1012.6
20260904112253 66 107 0.0 1.0 0.00 0.00 0.00 87 1012.5
20260904111317 66 113 0.0 0.0 0.00 0.00 0.00 87 1012.5
20260904110254 66 113 0.0 0.0 0.00 0.00 0.00 87 1012.6
20260904105243 66 113 0.0 0.0 0.00 0.00 0.00 87 1012.6
20260904104236 67 113 0.0 0.0 0.00 0.00 0.00 87 1012.6
20260904102013 67 113 0.0 0.0 0.00 0.00 0.00 87 1012.5
20260904101008 67 113 0.0 0.0 0.00 0.00 0.00 87 1012.5
20260904095955 67 134 0.0 1.0 0.00 0.00 0.00 88 1012.5
20260904095003 67 99 0.0 1.0 0.00 0.00 0.00 88 1012.3
20260904092853 67 150 0.0 3.0 0.00 0.00 0.00 88 1012.4
20260904090646 67 135 0.0 3.0 0.00 0.00 0.00 88 1012.4
20260904085617 67 148 0.0 2.0 0.00 0.00 0.00 88 1012.5
20260904084634 67 144 0.0 3.0 0.00 0.00 0.00 88 1012.6
20260904083640 67 165 1.0 3.0 0.00 0.00 0.00 88 1012.5
20260904082627 67 139 1.0 3.0 0.00 0.00 0.00 88 1012.6
20260904081635 67 142 1.0 3.0 0.00 0.00 0.00 88 1012.7
20260904080639 67 186 1.0 3.0 0.00 0.00 0.00 88 1012.7
20260904075629 67 163 1.0 3.0 0.00 0.00 0.00 88 1012.7
20260904074628 67 141 1.0 3.0 0.00 0.00 0.00 88 1012.8
20260904073643 67 67 1.0 4.0 0.00 0.00 0.00 87 1012.7
20260904071523 68 77 1.0 4.0 0.00 0.00 0.00 87 1012.7
20260904070451 68 149 1.0 4.0 0.00 0.00 0.00 87 1012.6
20260904065433 68 110 1.0 4.0 0.00 0.00 0.00 86 1012.6
20260904064435 68 34 1.0 3.0 0.00 0.00 0.00 86 1012.7
20260904062300 68 233 1.0 4.0 0.00 0.00 0.00 85 1012.4
20260904061228 68 96 1.0 4.0 0.00 0.00 0.00 85 1012.5
20260904060247 68 145 1.0 4.0 0.00 0.00 0.00 85 1012.5
20260904052952 68 15 3.0 5.0 0.00 0.00 0.00 83 1012.6
20260904051938 68 133 3.0 8.0 0.00 0.00 0.00 83 1012.6
20260904050912 68 226 4.0 8.0 0.00 0.00 0.00 83 1012.7
20260904045937 68 254 4.0 7.0 0.00 0.00 0.00 84 1012.6
20260904044953 68 219 5.0 8.0 0.00 0.00 0.00 84 1012.6
20260904044015 68 196 5.0 9.0 0.00 0.00 0.00 85 1012.5
20260904042955 69 249 5.0 9.0 0.00 0.00 0.00 86 1012.4
20260904041929 69 222 5.0 9.0 0.00 0.00 0.00 86 1012.4
20260904040935 69 250 6.0 9.0 0.00 0.00 0.00 86 1012.3
20260904035908 69 254 5.0 9.0 0.00 0.00 0.00 86 1012.3
20260904033748 69 259 5.0 8.0 0.00 0.00 0.00 86 1012.1
20260904032740 69 209 6.0 9.0 0.00 0.00 0.00 85 1012.0
20260904031753 69 326 5.0 9.0 0.00 0.00 0.00 85 1012.0
20260904030808 69 268 6.0 10.0 0.00 0.00 0.00 85 1011.9
20260904025825 69 271 5.0 10.0 0.00 0.00 0.00 84 1011.8
20260904024756 69 237 6.0 10.0 0.00 0.00 0.00 83 1011.9
20260904023819 70 138 6.0 9.0 0.00 0.00 0.00 83 1011.9
20260904022821 70 255 6.0 9.0 0.00 0.00 0.00 82 1011.9
20260904020736 71 283 6.0 9.0 0.00 0.00 0.00 80 1011.9
20260904015706 72 207 4.0 11.0 0.00 0.00 0.00 80 1011.9
20260904014635 72 216 5.0 11.0 0.00 0.00 0.00 79 1012.0
20260904013627 73 237 5.0 9.0 0.00 0.00 0.00 79 1012.1
20260904012629 73 212 6.0 11.0 0.00 0.00 0.00 79 1012.1
20260904011626 73 225 6.0 11.0 0.00 0.00 0.00 78 1012.0
20260904010612 73 327 7.0 11.0 0.00 0.00 0.00 77 1012.0
20260904005628 73 4 7.0 11.0 0.00 0.00 0.00 77 1012.0
20260904004640 74 274 7.0 9.0 0.00 0.00 0.00 76 1012.1
20260904003612 73 113 7.0 13.0 0.00 0.00 0.00 77 1012.1
20260904002610 74 238 8.0 13.0 0.00 0.00 0.00 76 1012.2
20260904001615 74 249 8.0 12.0 0.00 0.00 0.00 75 1012.4
20260904000628 74 228 8.0 11.0 0.00 0.00 0.00 76 1012.3
20260903235607 74 208 8.0 11.0 0.00 0.00 0.00 76 1012.3
20260903234551 74 252 7.0 13.0 0.00 0.00 0.00 75 1012.4
20260903233559 75 252 7.0 13.0 0.00 0.00 0.00 75 1012.3
20260903232550 75 218 7.0 11.0 0.00 0.00 0.00 74 1012.5
20260903231538 75 103 8.0 11.0 0.00 0.00 0.00 74 1012.5
20260903230557 75 288 8.0 11.0 0.00 0.00 0.00 74 1012.6
20260903225539 75 178 8.0 13.0 0.00 0.00 0.00 74 1012.6
20260903224541 75 205 8.0 13.0 0.00 0.00 0.00 75 1012.6
20260903223532 75 217 8.0 13.0 0.00 0.00 0.00 75 1012.9
20260903222520 75 267 8.0 12.0 0.00 0.00 0.00 74 1013.1
20260903221527 75 217 8.0 13.0 0.00 0.00 0.00 75 1013.2
20260903220458 76 282 8.0 13.0 0.00 0.00 0.00 74 1013.3
20260903215438 75 308 8.0 13.0 0.00 0.00 0.00 75 1013.5
20260903211002 76 240 8.0 14.0 0.00 0.00 0.00 74 1013.6
20260903210001 76 66 8.0 12.0 0.00 0.00 0.00 73 1013.6
20260903205018 77 314 8.0 13.0 0.00 0.00 0.00 72 1013.8
20260903204020 77 204 8.0 13.0 0.00 0.00 0.00 73 1013.7
20260903203015 77 213 7.0 13.0 0.00 0.00 0.00 71 1013.7
20260903201959 77 218 7.0 11.0 0.00 0.00 0.00 72 1013.7
20260903200948 77 178 5.0 11.0 0.00 0.00 0.00 71 1013.8
20260903195944 77 41 6.0 11.0 0.00 0.00 0.00 72 1013.9
20260903194952 77 278 6.0 10.0 0.00 0.00 0.00 72 1014.0
20260903193933 77 221 6.0 10.0 0.00 0.00 0.00 72 1014.0
20260903192942 77 298 6.0 10.0 0.00 0.00 0.00 72 1014.2
20260903191954 76 281 6.0 8.0 0.00 0.00 0.00 73 1014.4
20260903191007 76 324 6.0 9.0 0.00 0.00 0.00 72 1014.5
20260903185955 76 224 5.0 9.0 0.00 0.00 0.00 72 1014.6
20260903185014 76 248 5.0 9.0 0.00 0.00 0.00 72 1014.6
20260903184005 76 224 4.0 8.0 0.00 0.00 0.00 72 1014.8
20260903183025 76 238 4.0 8.0 0.00 0.00 0.00 72 1014.7
20260903182004 76 247 3.0 8.0 0.00 0.00 0.00 72 1014.9
20260903175818 76 0 3.0 7.0 0.00 0.00 0.00 73 1014.9
20260903173707 76 18 2.0 6.0 0.00 0.00 0.00 73 1014.8
20260903172633 75 343 1.0 5.0 0.00 0.00 0.00 74 1014.9
20260903171648 75 226 2.0 5.0 0.00 0.00 0.00 75 1015.0
20260903170616 75 13 1.0 4.0 0.00 0.00 0.00 74 1014.9
20260903164503 73 234 0.0 3.0 0.00 0.00 0.00 77 1014.8